Find Starlink 37594

NORAD ID: 100484 Int'l Des: 2026-196 Owner: SPXS Country: US Constellation: starlink operational

Current View

Loading 3D Globe...

About Starlink 37594

Starlink 37594 (NORAD 100484) is a starlink constellation satellite launched Aug 25, 2026 by SPXS of US. with a mass of 575.00 kg.

Upcoming Passes

Passes for default location (London). Set your location on the main map for personalized predictions.

Altitude History

Loading altitude history...

Two-Line Element Set

1 A0484U 26196M 26254.54878118 .00192244 00000-0 10005-2 0 9991
2 A0484 53.1577 286.3060 0001254 84.8958 275.2207 15.79877877 3942
Epoch: Sep 11, 2026 • Age: 10 hours

Current Status

Altitude 340.8 km
Apogee / Perigee N/A
Velocity 7.70 km/s
Sub-Earth Point -32.20°S, 89.19°W
Launch Date Aug 25, 2026
Age 17 days
Type internet

Technical Details

Classification Payload
Mass 575.00 kg
Dry Mass 530.00 kg
Total Mass 575.00 kg
Length 0.30 m
Diameter 4.10 m
Span 29.00 m
Shape Box + pan
Manufacturer SPXS
Bus Type Starlink V2MO
Phase Status In Orbit
Owner/State SPXS/US

Most Searched